Location: Biltmore Gardens
(41.6070°N, 83.4666°W)
Time: 15:14:01
(UTC+00:00)

IGS 5A - Pass Details

Date: 14 July 2020
Orbit: 582 x 589 km, 97.6° (Epoch: 08 August)

Event Time Altitude Azimuth Distance (km) Brightness Sun altitude
Exits shadow 02:20:05 17° 143° (SE) 1,512 4.9 -11.7°
Maximum altitude 02:23:03 49° 74° (ENE) 765 3.8 -12.1°
Drops below altitude 10° 02:27:04 10° 359° (N) 1,915 6.8 -12.6°
Sets 02:29:16 0° 354° (N) 2,819 7.8 -12.9°
